Waarnemingen

Advertentie
Mijn weer
Calvi, Frankrijk (7754): temperatuur & dauwpunt: 18.10.2017 09:00:00 - 24.10.2017 09:00:00 (CEST)Calvi, Frankrijk (7754): temperatuur 5cm: 18.10.2017 09:00:00 - 24.10.2017 09:00:00 (CEST)Calvi, Frankrijk (7754): windsnelheid & windstoten: 18.10.2017 09:00:00 - 24.10.2017 09:00:00 (CEST)Calvi, Frankrijk (7754): windrichting: 18.10.2017 09:00:00 - 24.10.2017 09:00:00 (CEST)Calvi, Frankrijk (7754): luchtdruk: 18.10.2017 09:00:00 - 24.10.2017 09:00:00 (CEST)Calvi, Frankrijk (7754): zicht: 18.10.2017 09:00:00 - 24.10.2017 09:00:00 (CEST)Calvi, Frankrijk (7754): Zonneschijnduur: 18.10.2017 09:00:00 - 24.10.2017 09:00:00 (CEST)Calvi, Frankrijk (7754): neerslag: 18.10.2017 09:00:00 - 24.10.2017 09:00:00 (CEST)
Datum & Tijd tt [°C] td [°C] tt 5cm [°C] ff [km/u] ff [kn] fx [km/u] fx [kn] dd ppp [hPa] vv [km] sd [min] rr [mm]
24.10.2017 09:00:00 12,7 4,1 10,7 15 8 18 10 ZZO 1019,3 10 15 0,0
24.10.2017 08:00:00 12,2 3,9 8,3 15 8 19 11 ZZW 1018,6 10 0 0,0
24.10.2017 07:00:00 8,9 1,1 8,4 9 5 17 9 Z 1018,7 10 0 0,0
24.10.2017 06:00:00 10,3 1,4 8,3 9 5 19 10 ZZW 1018,8 10 0 0,0
24.10.2017 05:00:00 9,8 0,4 8,5 13 7 18 10 ZZW 1018,6 10 0 0,0
24.10.2017 04:00:00 9,5 -2,2 7,5 6 3 17 9 Z 1018,7 60 0 0,0
24.10.2017 03:00:00 9,3 -1,7 7,7 5 3 15 8 - 1018,4 10 0 0,0
24.10.2017 02:00:00 9,5 -1,9 9,0 8 4 18 10 Z 1017,8 10 0 0,0
24.10.2017 01:00:00 11,0 -0,8 8,9 13 7 19 11 Z 1017,7 10 0 0,0
24.10.2017 00:00:00 12,1 0,5 9,0 11 6 19 10 Z 1017,6 10 0 0,0
23.10.2017 23:00:00 11,1 2,6 9,3 9 5 19 10 Z 1017,6 10 0 0,0
23.10.2017 22:00:00 10,4 3,0 9,2 13 7 16 9 Z 1017,4 10 0 0,0
23.10.2017 21:00:00 10,8 3,8 9,7 4 2 19 10 - 1017,1 10 0 0,0
23.10.2017 20:00:00 13,3 3,6 12,1 11 6 16 9 Z 1016,7 10 0 0,0
23.10.2017 19:00:00 14,1 6,0 12,6 2 1 8 5 W 1016,2 10 0 0,0
23.10.2017 18:00:00 18,2 7,3 18,0 7 4 22 12 Z 1015,1 60 50 0,0
23.10.2017 17:00:00 21,0 4,9 24,0 9 5 23 12 ZZW 1015,3 10 60 0,0
23.10.2017 16:00:00 21,4 5,7 25,3 11 6 29 15 WZW 1015,2 10 60 0,0
23.10.2017 15:00:00 21,5 6,6 23,4 18 10 31 17 ZZW 1015,0 10 60 0,0
23.10.2017 14:00:00 21,7 7,9 22,7 16 9 27 15 ZZW 1015,4 10 60 0,0
23.10.2017 13:00:00 20,9 8,2 23,2 15 8 26 14 WZW 1015,7 10 60 0,0
23.10.2017 12:00:00 20,6 6,2 25,6 11 6 19 10 ZW 1015,9 20 60 0,0
23.10.2017 11:00:00 20,9 3,6 18,3 4 2 9 5 ZO 1015,9 54 60 0,0
23.10.2017 10:00:00 17,3 4,6 12,3 4 2 8 4 Z 1016,0 38 60 0,0
23.10.2017 09:00:00 11,7 4,9 9,0 5 3 14 8 ZZW 1015,8 10 17 0,0
23.10.2017 08:00:00 10,1 4,7 9,0 3 1 17 9 Z 1015,2 51 0 0,0
23.10.2017 07:00:00 10,4 5,8 9,4 10 5 15 8 Z 1015,0 40 0 0,0
23.10.2017 06:00:00 10,6 6,3 9,9 9 5 14 8 Z 1014,9 10 0 0,0
23.10.2017 05:00:00 11,0 6,3 10,6 10 5 17 9 Z 1014,5 37 0 0,0
23.10.2017 04:00:00 12,2 7,1 11,7 12 7 18 10 ZZO 1014,5 20 0 0,0
23.10.2017 03:00:00 13,4 6,9 13,0 13 7 22 12 ZZO 1014,6 36 0 0,0
23.10.2017 02:00:00 16,6 7,5 15,7 15 8 23 12 ZW 1014,6 10 0 0,0
23.10.2017 01:00:00 17,1 7,7 16,7 11 6 32 17 ZZW 1014,6 10 0 0,0
23.10.2017 00:00:00 17,5 7,0 17,2 18 10 42 23 Z 1014,7 20 0 0,0
22.10.2017 23:00:00 17,5 5,4 16,6 19 10 67 36 Z 1014,8 49 0 0,0
22.10.2017 22:00:00 17,9 4,5 17,6 26 14 65 35 ZW 1015,2 10 0 0,0
22.10.2017 21:00:00 18,6 3,2 17,6 29 15 71 39 ZW 1015,2 60 0 0,0
22.10.2017 20:00:00 18,2 5,1 17,3 26 14 51 27 ZW 1014,9 10 0 0,0
22.10.2017 19:00:00 17,8 6,9 17,4 26 14 64 35 ZZW 1014,3 10 0 0,0
22.10.2017 18:00:00 17,8 6,6 17,8 31 17 67 36 ZZW 1014,5 10 17 0,0
22.10.2017 17:00:00 17,8 7,2 17,9 42 23 82 44 ZZW 1014,5 41 25 0,0
22.10.2017 16:00:00 19,5 7,2 19,9 34 18 68 37 ZW 1014,8 10 47 0,0
22.10.2017 15:00:00 20,2 7,2 21,5 40 22 67 36 ZZW 1014,6 19 60 0,0
22.10.2017 14:00:00 20,7 8,0 21,5 38 20 80 43 ZZW 1015,9 48 60 0,0
22.10.2017 13:00:00 21,7 4,3 22,9 42 23 74 40 ZZW 1015,5 10 60 0,0
22.10.2017 12:00:00 21,6 9,5 21,9 42 23 67 36 ZZW 1016,3 10 60 0,0
22.10.2017 11:00:00 20,9 12,1 20,4 32 18 52 28 ZW 1017,1 19 37 0,0
22.10.2017 10:00:00 20,0 12,7 20,0 26 14 48 26 ZZW 1017,1 54 0 0,0
22.10.2017 09:00:00 20,0 14,6 19,7 22 12 38 21 ZZW 1016,9 10 0 0,0
22.10.2017 08:00:00 20,3 14,2 19,6 22 12 35 19 Z 1016,7 60 0 0,0
22.10.2017 07:00:00 20,2 14,8 19,7 21 11 37 20 ZZW 1016,7 52 0 0,0
22.10.2017 06:00:00 20,3 15,1 19,9 22 12 34 18 Z 1016,8 60 0 0,0
22.10.2017 05:00:00 20,8 14,7 20,1 17 9 29 16 Z 1017,0 60 0 0,0
22.10.2017 04:00:00 20,4 14,7 20,0 16 9 32 17 Z 1017,5 10 0 0,0
22.10.2017 03:00:00 20,4 14,5 19,7 18 10 44 24 Z 1018,3 10 0 0,0
22.10.2017 02:00:00 21,5 12,6 20,9 14 7 34 19 ZZW 1018,2 60 0 0,0
22.10.2017 01:00:00 22,1 12,4 20,8 22 12 39 21 ZZW 1018,8 10 0 0,0
22.10.2017 00:00:00 21,6 12,2 20,1 18 10 33 18 ZZW 1018,9 60 0 0,0
21.10.2017 23:00:00 20,9 14,8 19,7 15 8 23 12 Z 1019,6 44 0 0,0
21.10.2017 22:00:00 20,6 15,6 19,8 13 7 24 13 Z 1019,6 34 0 0,0
21.10.2017 21:00:00 21,3 15,8 20,6 16 9 27 14 ZW 1019,7 39 0 0,0
21.10.2017 20:00:00 21,5 15,8 20,9 15 8 26 14 ZW 1019,4 40 0 0,0
21.10.2017 19:00:00 21,8 15,2 21,2 12 7 34 18 ZZW 1018,9 42 0 0,0
21.10.2017 18:00:00 23,2 14,2 23,2 15 8 27 15 ZZW 1018,8 10 52 0,0
21.10.2017 17:00:00 25,0 13,5 27,3 16 9 34 18 ZW 1018,9 10 60 0,0
21.10.2017 16:00:00 25,8 13,3 28,9 18 10 33 18 ZW 1019,0 10 60 0,0
21.10.2017 15:00:00 26,4 13,2 28,5 21 11 32 17 ZW 1019,4 10 60 0,0
21.10.2017 14:00:00 27,0 12,6 28,5 16 9 31 17 ZW 1019,9 10 60 0,0
21.10.2017 13:00:00 26,3 14,1 29,3 14 8 21 12 ONO 1020,4 52 60 0,0
21.10.2017 12:00:00 24,1 13,0 26,9 9 5 14 8 N 1021,0 10 60 0,0
21.10.2017 11:00:00 22,9 11,9 21,6 9 5 13 7 N 1021,2 10 60 0,0
21.10.2017 10:00:00 21,0 10,2 16,4 4 2 12 7 - 1021,0 10 60 0,0
21.10.2017 09:00:00 16,3 10,2 12,7 9 5 15 8 Z 1020,8 10 20 0,0
21.10.2017 08:00:00 13,0 9,1 11,8 9 5 15 8 ZZW 1020,7 10 0 0,0
21.10.2017 07:00:00 13,5 8,8 12,0 8 4 16 8 Z 1020,4 29 0 0,0
21.10.2017 06:00:00 13,2 9,1 11,8 7 4 16 9 ZZW 1020,3 37 0 0,0
21.10.2017 05:00:00 13,1 9,0 11,9 11 6 16 8 ZZW 1020,4 10 0 0,0
21.10.2017 04:00:00 12,7 8,8 11,7 7 4 11 6 Z 1020,3 33 0 0,0
21.10.2017 03:00:00 13,6 9,0 12,9 8 4 11 6 Z 1020,4 10 0 0,0
21.10.2017 02:00:00 14,8 9,4 12,9 9 5 16 9 Z 1020,6 10 0 0,0
21.10.2017 01:00:00 14,1 9,9 12,6 8 4 12 7 Z 1020,6 10 0 0,0
21.10.2017 00:00:00 14,5 10,1 13,4 8 4 15 8 Z 1020,5 10 0 0,0
20.10.2017 23:00:00 14,5 10,9 13,5 8 4 14 7 Z 1020,4 10 0 0,0
20.10.2017 22:00:00 15,4 11,4 14,6 9 5 15 8 ZZW 1020,0 10 0 0,0
20.10.2017 21:00:00 15,1 11,7 14,7 5 3 11 6 - 1019,9 10 0 0,0
20.10.2017 20:00:00 16,1 12,6 15,4 4 2 11 6 Z 1019,4 23 0 0,0
20.10.2017 19:00:00 18,4 15,1 17,7 4 2 7 4 Z 1018,6 18 0 0,0
20.10.2017 18:00:00 21,4 17,2 21,5 4 2 18 10 NW 1018,2 32 53 0,0
20.10.2017 17:00:00 22,7 17,2 25,2 15 8 30 16 N 1017,9 30 60 0,0
20.10.2017 16:00:00 23,7 15,5 26,9 24 13 32 17 N 1017,3 10 60 0,0
20.10.2017 15:00:00 24,9 13,8 27,5 18 10 26 14 N 1017,2 10 60 0,0
20.10.2017 14:00:00 25,4 11,9 26,9 15 8 25 14 N 1017,2 10 60 0,0
20.10.2017 13:00:00 24,7 14,5 28,0 13 7 21 11 N 1017,5 10 60 0,0
20.10.2017 12:00:00 23,8 13,6 27,1 11 6 16 9 N 1017,7 10 60 0,0
20.10.2017 11:00:00 23,4 13,6 21,2 8 5 13 7 N 1017,7 43 60 0,0
20.10.2017 10:00:00 21,2 8,1 16,1 4 2 7 4 NNO 1017,3 52 60 0,0
20.10.2017 09:00:00 16,0 7,2 12,3 6 3 12 7 Z 1017,1 28 19 0,0
20.10.2017 08:00:00 14,4 6,5 12,1 11 6 17 9 Z 1016,3 45 0 0,0
20.10.2017 07:00:00 14,1 6,2 11,9 11 6 14 7 ZZW 1015,8 54 0 0,0
20.10.2017 06:00:00 13,8 5,9 11,7 11 6 18 10 Z 1015,2 57 0 0,0
20.10.2017 05:00:00 12,6 5,0 10,9 8 4 14 8 Z 1014,9 10 0 0,0
20.10.2017 04:00:00 12,4 5,3 11,2 5 3 13 7 ZZO 1014,8 60 0 0,0
20.10.2017 03:00:00 14,4 5,5 12,3 8 4 13 7 ZZW 1015,0 10 0 0,0
20.10.2017 02:00:00 14,1 6,2 11,1 7 4 15 8 ZW 1015,0 58 0 0,0
20.10.2017 01:00:00 14,7 5,7 12,9 13 7 16 9 Z 1014,6 60 0 0,0
20.10.2017 00:00:00 13,7 5,8 12,3 9 5 15 8 Z 1014,1 10 0 0,0
19.10.2017 23:00:00 14,2 6,3 13,5 7 4 17 9 Z 1013,8 58 0 0,0
19.10.2017 22:00:00 15,0 7,0 14,4 11 6 15 8 Z 1014,1 55 0 0,0
19.10.2017 21:00:00 15,3 8,1 14,7 5 3 13 7 ZZW 1013,7 54 0 0,0
19.10.2017 20:00:00 15,6 9,3 14,4 8 4 13 7 Z 1013,3 31 0 0,0
19.10.2017 19:00:00 17,9 11,2 16,9 8 4 9 5 ZW 1013,0 26 0 0,0
19.10.2017 18:00:00 21,1 12,8 20,7 0 0 8 4 N 1013,3 51 0 0,0
19.10.2017 17:00:00 21,7 13,6 22,7 6 4 13 7 NNO 1013,4 54 23 0,0
19.10.2017 16:00:00 23,1 15,4 24,8 8 4 17 9 N 1013,6 10 55 0,0
19.10.2017 15:00:00 22,4 15,5 24,9 11 6 21 11 N 1014,0 10 60 0,0
19.10.2017 14:00:00 22,5 14,1 24,3 13 7 19 11 N 1014,6 10 60 0,0
19.10.2017 13:00:00 23,5 13,4 24,7 8 4 19 10 N 1015,3 10 57 0,0
19.10.2017 12:00:00 22,5 14,1 26,1 8 4 19 11 NNW 1015,8 10 60 0,0
19.10.2017 11:00:00 22,8 15,1 20,9 4 2 9 5 NO 1015,7 45 60 0,0
19.10.2017 10:00:00 20,7 6,6 15,6 4 2 8 5 - 1015,8 10 60 0,0
19.10.2017 09:00:00 16,3 5,0 10,6 8 4 10 5 ZZO 1015,7 10 26 0,0
19.10.2017 08:00:00 11,7 3,9 9,7 5 3 16 8 ZZW 1015,4 10 0 0,0
19.10.2017 07:00:00 11,3 3,1 9,8 6 3 14 8 Z 1015,2 47 0 0,0
19.10.2017 06:00:00 11,8 4,3 11,1 8 4 14 8 Z 1015,1 10 0 0,0
19.10.2017 05:00:00 12,7 5,4 11,0 5 3 12 6 ZZW 1015,4 10 0 0,0
19.10.2017 04:00:00 11,7 5,1 11,1 8 4 13 7 Z 1015,6 10 0 0,0
19.10.2017 03:00:00 12,6 7,5 11,2 6 3 14 8 Z 1016,3 31 0 0,0
19.10.2017 02:00:00 14,5 8,2 12,0 13 7 17 9 Z 1016,5 10 0 0,0
19.10.2017 01:00:00 13,3 10,3 12,1 5 3 12 6 ZZW 1017,0 10 0 0,0
19.10.2017 00:00:00 13,7 10,1 13,2 10 5 15 8 ZZO 1017,3 22 0 0,0
18.10.2017 23:00:00 15,1 12,2 12,9 12 6 16 9 Z 1017,8 18 0 0,0
18.10.2017 22:00:00 14,2 12,1 13,4 6 3 10 5 ZZO 1017,5 12 0 0,0
18.10.2017 21:00:00 14,4 12,3 13,5 5 3 11 6 ZZW 1017,4 13 0 0,0
18.10.2017 20:00:00 15,9 13,4 15,1 8 5 12 6 Z 1017,5 15 0 0,0
18.10.2017 19:00:00 17,1 13,8 16,3 6 3 10 5 Z 1017,1 15 0 0,0
18.10.2017 18:00:00 20,0 15,4 20,4 4 2 13 7 - 1017,0 10 55 0,0
18.10.2017 17:00:00 21,1 15,6 24,8 5 3 20 11 - 1017,2 10 60 0,0
18.10.2017 16:00:00 21,3 15,8 25,5 13 7 23 12 N 1017,7 10 60 0,0
18.10.2017 15:00:00 21,4 16,1 23,8 13 7 21 12 N 1017,9 10 60 0,0
18.10.2017 14:00:00 21,4 15,9 23,7 15 8 24 13 N 1018,6 10 60 0,0
18.10.2017 13:00:00 21,4 15,9 24,8 13 7 26 14 N 1019,2 10 60 0,0
18.10.2017 12:00:00 21,0 16,0 24,7 15 8 22 12 N 1019,7 10 60 0,0
18.10.2017 11:00:00 20,4 14,5 19,2 10 6 16 8 N 1019,6 25 60 0,0
18.10.2017 10:00:00 19,1 14,6 13,6 0 0 8 4 N 1019,8 10 60 0,0
18.10.2017 09:00:00 13,1 10,1 11,2 8 4 16 9 ZZO 1020,1 12 26 0,0

tt = temperatuur
td = dauwpunt
tt 5cm = temperatuur 5cm
ff = windsnelheid
fx = windstoten
dd = windrichting
ppp = luchtdruk
vv = zicht
sd = Zonneschijnduur
rr = neerslag

Weerstations in de omgeving